Time,TemperatureF,DewpointF,PressureIn,WindDirection,WindDirectionDegrees,WindSpeedMPH,WindSpeedGustMPH,Humidity,HourlyPrecipIn,Conditions,Clouds,dailyrainin,SoftwareType,DateUTC
2013-05-28 00:01:00,57.0,55.0,29.98,SSW,209,1.0,5.0,94,0.00,,,0.02,,2013-05-28 07:01:00,
2013-05-28 00:11:00,57.0,55.0,29.98,SSW,209,1.0,5.0,94,0.00,,,0.02,,2013-05-28 07:11:00,
2013-05-28 00:21:00,57.0,55.0,29.98,SW,220,2.0,6.0,94,0.00,,,0.02,,2013-05-28 07:21:00,
2013-05-28 00:32:00,57.0,55.0,29.97,SSW,194,0.0,6.0,94,0.00,,,0.02,,2013-05-28 07:32:00,
2013-05-28 00:42:00,57.0,55.0,29.97,SSW,194,0.0,6.0,94,0.00,,,0.02,,2013-05-28 07:42:00,
2013-05-28 00:52:00,57.0,56.0,29.97,SSW,195,0.0,2.0,95,0.00,,,0.02,,2013-05-28 07:52:00,
2013-05-28 01:01:00,57.0,56.0,29.97,South,191,0.0,3.0,95,0.00,,,0.02,,2013-05-28 08:01:00,
2013-05-28 01:11:00,57.0,56.0,29.97,South,191,0.0,3.0,95,0.00,,,0.02,,2013-05-28 08:11:00,
2013-05-28 01:21:00,57.0,56.0,29.96,SSW,199,0.0,3.0,95,0.00,,,0.02,,2013-05-28 08:21:00,
2013-05-28 01:32:00,57.0,56.0,29.95,SSW,199,0.0,2.0,95,0.00,,,0.02,,2013-05-28 08:32:00,
2013-05-28 01:42:00,57.0,56.0,29.95,SSW,199,0.0,2.0,95,0.00,,,0.02,,2013-05-28 08:42:00,
2013-05-28 01:51:00,57.0,56.0,29.96,SSW,199,0.0,1.0,95,0.00,,,0.02,,2013-05-28 08:51:00,
2013-05-28 02:01:00,57.0,56.0,29.95,SSW,193,0.0,3.0,95,0.00,,,0.02,,2013-05-28 09:01:00,
2013-05-28 02:11:00,57.0,56.0,29.95,SSW,193,0.0,3.0,95,0.00,,,0.02,,2013-05-28 09:11:00,
2013-05-28 02:21:00,57.0,56.0,29.95,SSW,209,1.0,5.0,95,0.00,,,0.02,,2013-05-28 09:21:00,
2013-05-28 02:33:00,57.0,56.0,29.95,SSW,200,0.0,3.0,95,0.00,,,0.02,,2013-05-28 09:33:00,
2013-05-28 02:42:00,57.0,56.0,29.95,SSW,200,0.0,3.0,95,0.00,,,0.02,,2013-05-28 09:42:00,
2013-05-28 02:53:00,57.0,56.0,29.95,SSW,212,1.0,4.0,95,0.00,,,0.02,,2013-05-28 09:53:00,
2013-05-28 03:02:00,57.0,56.0,29.95,SW,225,0.0,4.0,95,0.00,,,0.02,,2013-05-28 10:02:00,
2013-05-28 03:12:00,57.0,56.0,29.95,SW,225,0.0,4.0,95,0.00,,,0.02,,2013-05-28 10:12:00,
2013-05-28 03:22:00,57.0,56.0,29.94,SW,229,0.0,2.0,95,0.00,,,0.02,,2013-05-28 10:22:00,
2013-05-28 03:32:00,57.0,56.0,29.95,SW,219,1.0,4.0,95,0.01,,,0.03,,2013-05-28 10:32:00,
2013-05-28 03:42:00,57.0,56.0,29.95,SW,219,1.0,4.0,95,0.01,,,0.03,,2013-05-28 10:42:00,
2013-05-28 03:52:00,57.0,55.0,29.94,SSW,209,2.0,4.0,94,0.01,,,0.03,,2013-05-28 10:52:00,
2013-05-28 04:02:00,57.0,55.0,29.94,SW,219,3.0,5.0,93,0.01,,,0.03,,2013-05-28 11:02:00,
2013-05-28 04:11:00,57.0,55.0,29.94,SW,219,3.0,5.0,93,0.01,,,0.03,,2013-05-28 11:11:00,
2013-05-28 04:22:00,57.0,55.0,29.94,SSW,210,2.0,5.0,93,0.01,,,0.03,,2013-05-28 11:22:00,
2013-05-28 04:32:00,57.0,55.0,29.94,SW,215,2.0,5.0,93,0.00,,,0.03,,2013-05-28 11:32:00,
2013-05-28 04:41:00,57.0,55.0,29.94,SW,215,2.0,5.0,93,0.00,,,0.03,,2013-05-28 11:41:00,
2013-05-28 04:52:00,57.0,55.0,29.94,SW,227,0.0,4.0,93,0.00,,,0.03,,2013-05-28 11:52:00,
2013-05-28 05:01:00,57.0,55.0,29.94,SSW,209,2.0,4.0,93,0.00,,,0.03,,2013-05-28 12:01:00,
2013-05-28 05:11:00,57.0,55.0,29.94,SSW,209,2.0,4.0,93,0.00,,,0.03,,2013-05-28 12:11:00,
2013-05-28 05:21:00,57.0,55.0,29.94,SW,217,1.0,5.0,93,0.00,,,0.03,,2013-05-28 12:21:00,
2013-05-28 05:31:00,57.0,55.0,29.94,SW,235,1.0,6.0,93,0.00,,,0.03,,2013-05-28 12:31:00,
2013-05-28 05:42:00,57.0,55.0,29.94,SW,235,1.0,6.0,93,0.00,,,0.03,,2013-05-28 12:42:00,
2013-05-28 05:52:00,57.0,55.0,29.94,SW,216,0.0,3.0,93,0.00,,,0.03,,2013-05-28 12:52:00,
2013-05-28 06:01:00,57.0,55.0,29.93,SSW,196,1.0,5.0,93,0.00,,,0.03,,2013-05-28 13:01:00,
2013-05-28 06:11:00,57.0,55.0,29.93,SSW,196,1.0,5.0,93,0.00,,,0.03,,2013-05-28 13:11:00,
2013-05-28 06:21:00,57.0,55.0,29.93,SSW,207,0.0,5.0,93,0.00,,,0.03,,2013-05-28 13:21:00,
2013-05-28 06:32:00,57.0,55.0,29.94,SW,231,0.0,1.0,94,0.00,,,0.03,,2013-05-28 13:32:00,
2013-05-28 06:42:00,57.0,55.0,29.94,SW,231,0.0,1.0,94,0.00,,,0.03,,2013-05-28 13:42:00,
2013-05-28 06:52:00,57.0,55.0,29.94,SW,224,2.0,4.0,93,0.00,,,0.03,,2013-05-28 13:52:00,
2013-05-28 07:01:00,58.0,56.0,29.94,SSW,196,1.0,4.0,93,0.00,,,0.03,,2013-05-28 14:01:00,
2013-05-28 07:11:00,58.0,56.0,29.94,SSW,196,1.0,4.0,93,0.00,,,0.03,,2013-05-28 14:11:00,
2013-05-28 07:21:00,58.0,56.0,29.95,SW,229,2.0,4.0,93,0.00,,,0.03,,2013-05-28 14:21:00,
2013-05-28 07:32:00,59.0,57.0,29.95,SW,214,2.0,5.0,92,0.00,,,0.03,,2013-05-28 14:32:00,
2013-05-28 07:41:00,59.0,57.0,29.95,SW,214,2.0,5.0,92,0.00,,,0.03,,2013-05-28 14:41:00,
2013-05-28 07:52:00,59.0,57.0,29.95,SW,214,2.0,5.0,92,0.00,,,0.03,,2013-05-28 14:52:00,
2013-05-28 08:01:00,59.0,57.0,29.95,SW,214,2.0,5.0,92,0.00,,,0.03,,2013-05-28 15:01:00,
2013-05-28 08:11:00,59.0,57.0,29.95,SW,214,2.0,5.0,92,0.00,,,0.03,,2013-05-28 15:11:00,
2013-05-28 08:21:00,59.0,56.0,29.95,SSW,202,2.0,5.0,91,0.00,,,0.03,,2013-05-28 15:21:00,
2013-05-28 08:32:00,59.0,56.0,29.95,SSW,207,3.0,5.0,91,0.00,,,0.03,,2013-05-28 15:32:00,
2013-05-28 08:43:00,59.0,56.0,29.95,SSW,207,3.0,5.0,91,0.00,,,0.03,,2013-05-28 15:43:00,
2013-05-28 08:52:00,60.0,57.0,29.95,SW,236,3.0,7.0,90,0.00,,,0.03,,2013-05-28 15:52:00,
2013-05-28 09:03:00,60.0,57.0,29.95,SW,227,0.0,5.0,89,0.00,,,0.03,,2013-05-28 16:03:00,
2013-05-28 09:12:00,60.0,57.0,29.95,SW,227,0.0,5.0,89,0.00,,,0.03,,2013-05-28 16:12:00,
2013-05-28 09:22:00,60.0,57.0,29.95,SW,215,1.0,5.0,90,0.00,,,0.03,,2013-05-28 16:22:00,
2013-05-28 09:32:00,60.0,56.0,29.96,SSW,207,0.0,3.0,88,0.00,,,0.03,,2013-05-28 16:32:00,
2013-05-28 09:42:00,60.0,56.0,29.96,SSW,207,0.0,3.0,88,0.00,,,0.03,,2013-05-28 16:42:00,
2013-05-28 09:52:00,62.0,58.0,29.96,South,188,0.0,4.0,88,0.00,,,0.03,,2013-05-28 16:52:00,
2013-05-28 10:02:00,64.0,59.0,29.96,SSW,192,0.0,4.0,83,0.00,,,0.03,,2013-05-28 17:02:00,
2013-05-28 10:12:00,64.0,59.0,29.96,SSW,192,0.0,4.0,83,0.00,,,0.03,,2013-05-28 17:12:00,
2013-05-28 10:22:00,64.0,59.0,29.96,SSW,192,0.0,4.0,83,0.00,,,0.03,,2013-05-28 17:22:00,
2013-05-28 10:32:00,66.0,59.0,29.95,SSW,192,0.0,6.0,78,0.00,,,0.03,,2013-05-28 17:32:00,
2013-05-28 10:42:00,67.0,58.0,29.95,WSW,237,0.0,5.0,73,0.00,,,0.03,,2013-05-28 17:42:00,
2013-05-28 10:52:00,67.0,58.0,29.95,WSW,237,0.0,5.0,73,0.00,,,0.03,,2013-05-28 17:52:00,
2013-05-28 11:01:00,68.0,57.0,29.95,NNW,340,2.0,7.0,69,0.00,,,0.03,,2013-05-28 18:01:00,
2013-05-28 11:11:00,68.0,57.0,29.95,NNW,340,2.0,7.0,69,0.00,,,0.03,,2013-05-28 18:11:00,
2013-05-28 11:21:00,68.0,57.0,29.95,WSW,246,0.0,6.0,68,0.00,,,0.03,,2013-05-28 18:21:00,
2013-05-28 11:32:00,69.0,56.0,29.95,WSW,240,0.0,6.0,63,0.00,,,0.03,,2013-05-28 18:32:00,
2013-05-28 11:42:00,69.0,56.0,29.95,SW,225,0.0,3.0,64,0.00,,,0.03,,2013-05-28 18:42:00,
2013-05-28 11:52:00,69.0,56.0,29.95,SW,225,0.0,3.0,64,0.00,,,0.03,,2013-05-28 18:52:00,
2013-05-28 12:01:00,69.0,55.0,29.95,WSW,237,1.0,4.0,60,0.00,,,0.03,,2013-05-28 19:01:00,
2013-05-28 12:11:00,69.0,55.0,29.95,WSW,237,1.0,4.0,60,0.00,,,0.03,,2013-05-28 19:11:00,
2013-05-28 12:21:00,70.0,55.0,29.95,NNW,333,0.0,3.0,59,0.00,,,0.03,,2013-05-28 19:21:00,
2013-05-28 12:31:00,70.0,55.0,29.95,NNW,339,0.0,2.0,60,0.00,,,0.03,,2013-05-28 19:31:00,
2013-05-28 12:41:00,70.0,55.0,29.95,NNW,339,0.0,2.0,60,0.00,,,0.03,,2013-05-28 19:41:00,
2013-05-28 12:52:00,72.0,55.0,29.95,North,355,1.0,3.0,55,0.00,,,0.03,,2013-05-28 19:52:00,
2013-05-28 13:01:00,72.0,54.0,29.94,North,5,0.0,2.0,53,0.00,,,0.03,,2013-05-28 20:01:00,
2013-05-28 13:11:00,72.0,54.0,29.94,North,5,0.0,2.0,53,0.00,,,0.03,,2013-05-28 20:11:00,
2013-05-28 13:22:00,73.0,56.0,29.94,North,5,0.0,2.0,56,0.00,,,0.03,,2013-05-28 20:22:00,
2013-05-28 13:32:00,76.0,55.0,29.93,SE,144,0.0,3.0,49,0.00,,,0.03,,2013-05-28 20:32:00,
2013-05-28 13:42:00,76.0,55.0,29.93,SE,144,0.0,3.0,49,0.00,,,0.03,,2013-05-28 20:42:00,
2013-05-28 13:52:00,77.0,54.0,29.93,SSW,199,0.0,3.0,45,0.00,,,0.03,,2013-05-28 20:52:00,
2013-05-28 14:01:00,75.0,56.0,29.93,NNW,327,0.0,3.0,51,0.00,,,0.03,,2013-05-28 21:01:00,
2013-05-28 14:11:00,76.0,54.0,29.93,NNW,333,0.0,2.0,47,0.00,,,0.03,,2013-05-28 21:11:00,
2013-05-28 14:21:00,76.0,54.0,29.93,NNW,333,0.0,2.0,47,0.00,,,0.03,,2013-05-28 21:21:00,
2013-05-28 14:33:00,78.0,56.0,29.92,NNE,12,0.0,3.0,46,0.00,,,0.03,,2013-05-28 21:33:00,
2013-05-28 14:43:00,77.0,52.0,29.92,NNW,342,2.0,6.0,42,0.00,,,0.03,,2013-05-28 21:43:00,
2013-05-28 14:53:00,77.0,52.0,29.92,NNW,342,2.0,6.0,42,0.00,,,0.03,,2013-05-28 21:53:00,
2013-05-28 15:02:00,78.0,54.0,29.91,WSW,251,1.0,3.0,44,0.00,,,0.03,,2013-05-28 22:02:00,
2013-05-28 15:12:00,78.0,54.0,29.91,NW,311,0.0,6.0,43,0.00,,,0.03,,2013-05-28 22:12:00,
2013-05-28 15:22:00,78.0,54.0,29.91,NW,311,0.0,6.0,43,0.00,,,0.03,,2013-05-28 22:22:00,
2013-05-28 15:32:00,79.0,55.0,29.90,NNW,344,0.0,3.0,43,0.00,,,0.03,,2013-05-28 22:32:00,
2013-05-28 15:42:00,79.0,55.0,29.90,NNW,344,0.0,3.0,43,0.00,,,0.03,,2013-05-28 22:42:00,
2013-05-28 15:52:00,79.0,55.0,29.90,NNW,344,0.0,3.0,43,0.00,,,0.03,,2013-05-28 22:52:00,
2013-05-28 16:02:00,79.0,54.0,29.90,WSW,253,0.0,5.0,42,0.00,,,0.03,,2013-05-28 23:02:00,
2013-05-28 16:11:00,79.0,53.0,29.90,NNW,332,0.0,5.0,40,0.00,,,0.03,,2013-05-28 23:11:00,
2013-05-28 16:21:00,79.0,53.0,29.90,NNW,332,0.0,5.0,40,0.00,,,0.03,,2013-05-28 23:21:00,
2013-05-28 16:32:00,79.0,53.0,29.89,WSW,244,0.0,4.0,41,0.00,,,0.03,,2013-05-28 23:32:00,
2013-05-28 16:42:00,79.0,53.0,29.89,WSW,244,0.0,4.0,41,0.00,,,0.03,,2013-05-28 23:42:00,
2013-05-28 16:52:00,79.0,52.0,29.88,North,351,0.0,3.0,39,0.00,,,0.03,,2013-05-28 23:52:00,
2013-05-28 17:01:00,78.0,51.0,29.88,SW,233,4.0,7.0,39,0.00,,,0.03,,2013-05-29 00:01:00,
2013-05-28 17:11:00,78.0,51.0,29.88,SW,233,4.0,7.0,39,0.00,,,0.03,,2013-05-29 00:11:00,
2013-05-28 17:21:00,77.0,51.0,29.87,WSW,247,0.0,6.0,40,0.00,,,0.03,,2013-05-29 00:21:00,
2013-05-28 17:32:00,77.0,52.0,29.87,NNW,327,1.0,6.0,42,0.00,,,0.03,,2013-05-29 00:32:00,
2013-05-28 17:41:00,77.0,52.0,29.87,NNW,327,1.0,6.0,42,0.00,,,0.03,,2013-05-29 00:41:00,
2013-05-28 17:51:00,77.0,51.0,29.86,North,360,0.0,4.0,41,0.00,,,0.03,,2013-05-29 00:51:00,
2013-05-28 18:01:00,77.0,51.0,29.85,WSW,246,3.0,6.0,40,0.00,,,0.03,,2013-05-29 01:01:00,
2013-05-28 18:11:00,77.0,51.0,29.85,WSW,246,3.0,6.0,40,0.00,,,0.03,,2013-05-29 01:11:00,
2013-05-28 18:21:00,77.0,52.0,29.85,NNW,341,0.0,3.0,42,0.00,,,0.03,,2013-05-29 01:21:00,
2013-05-28 18:32:00,77.0,51.0,29.84,NW,325,0.0,4.0,41,0.00,,,0.03,,2013-05-29 01:32:00,
2013-05-28 18:41:00,77.0,51.0,29.84,NW,325,0.0,4.0,41,0.00,,,0.03,,2013-05-29 01:41:00,
2013-05-28 18:52:00,77.0,51.0,29.84,NNW,327,1.0,4.0,41,0.00,,,0.03,,2013-05-29 01:52:00,
2013-05-28 19:02:00,77.0,53.0,29.84,NNW,327,0.0,2.0,43,0.00,,,0.03,,2013-05-29 02:02:00,
2013-05-28 19:11:00,76.0,50.0,29.84,West,259,0.0,3.0,40,0.00,,,0.03,,2013-05-29 02:11:00,
2013-05-28 19:21:00,76.0,50.0,29.84,West,259,0.0,3.0,40,0.00,,,0.03,,2013-05-29 02:21:00,
2013-05-28 19:31:00,75.0,49.0,29.84,West,265,0.0,4.0,40,0.00,,,0.03,,2013-05-29 02:31:00,
2013-05-28 19:41:00,76.0,50.0,29.84,West,259,1.0,5.0,40,0.00,,,0.03,,2013-05-29 02:41:00,
2013-05-28 19:51:00,76.0,50.0,29.84,West,259,1.0,5.0,40,0.00,,,0.03,,2013-05-29 02:51:00,
2013-05-28 20:01:00,74.0,55.0,29.85,West,271,5.0,12.0,51,0.00,,,0.03,,2013-05-29 03:01:00,
2013-05-28 20:11:00,74.0,55.0,29.85,West,271,5.0,12.0,51,0.00,,,0.03,,2013-05-29 03:11:00,
2013-05-28 20:21:00,72.0,54.0,29.85,WSW,258,3.0,10.0,54,0.00,,,0.03,,2013-05-29 03:21:00,
2013-05-28 20:33:00,70.0,54.0,29.85,West,276,3.0,8.0,57,0.00,,,0.03,,2013-05-29 03:33:00,
2013-05-28 20:43:00,70.0,54.0,29.85,West,276,3.0,8.0,57,0.00,,,0.03,,2013-05-29 03:43:00,
2013-05-28 20:53:00,69.0,54.0,29.86,West,262,1.0,6.0,59,0.00,,,0.03,,2013-05-29 03:53:00,
2013-05-28 21:02:00,68.0,54.0,29.86,West,259,1.0,8.0,61,0.00,,,0.03,,2013-05-29 04:02:00,
2013-05-28 21:12:00,66.0,53.0,29.86,West,259,2.0,6.0,62,0.00,,,0.03,,2013-05-29 04:12:00,
2013-05-28 21:23:00,66.0,53.0,29.86,West,259,2.0,6.0,62,0.00,,,0.03,,2013-05-29 04:23:00,
2013-05-28 21:33:00,65.0,53.0,29.86,WSW,239,5.0,10.0,64,0.00,,,0.03,,2013-05-29 04:33:00,
2013-05-28 21:42:00,65.0,53.0,29.86,WSW,239,5.0,10.0,64,0.00,,,0.03,,2013-05-29 04:42:00,
2013-05-28 21:52:00,65.0,53.0,29.87,WSW,254,2.0,8.0,64,0.00,,,0.03,,2013-05-29 04:52:00,
2013-05-28 22:02:00,64.0,52.0,29.86,West,261,2.0,8.0,65,0.00,,,0.03,,2013-05-29 05:02:00,
2013-05-28 22:11:00,64.0,52.0,29.86,West,261,2.0,8.0,65,0.00,,,0.03,,2013-05-29 05:11:00,
2013-05-28 22:22:00,64.0,52.0,29.86,WSW,254,4.0,8.0,65,0.00,,,0.02,,2013-05-29 05:22:00,
2013-05-28 22:32:00,64.0,52.0,29.86,West,262,4.0,7.0,66,0.00,,,0.02,,2013-05-29 05:32:00,
2013-05-28 22:42:00,64.0,52.0,29.86,West,262,4.0,7.0,66,0.00,,,0.02,,2013-05-29 05:42:00,
2013-05-28 22:52:00,64.0,52.0,29.86,WSW,251,3.0,7.0,66,0.00,,,0.02,,2013-05-29 05:52:00,
2013-05-28 23:01:00,63.0,51.0,29.86,SW,234,1.0,6.0,66,0.00,,,0.02,,2013-05-29 06:01:00,
2013-05-28 23:11:00,63.0,51.0,29.86,SW,234,1.0,6.0,66,0.00,,,0.02,,2013-05-29 06:11:00,
2013-05-28 23:21:00,63.0,51.0,29.86,SW,234,1.0,6.0,66,0.00,,,0.02,,2013-05-29 06:21:00,
2013-05-28 23:31:00,63.0,51.0,29.87,WSW,243,4.0,8.0,66,0.00,,,0.01,,2013-05-29 06:31:00,
2013-05-28 23:41:00,63.0,51.0,29.87,WSW,243,4.0,8.0,66,0.00,,,0.01,,2013-05-29 06:41:00,
2013-05-28 23:52:00,63.0,51.0,29.85,WSW,255,4.0,8.0,66,0.00,,,0.01,,2013-05-29 06:52:00,